Time,TemperatureF,DewpointF,PressureIn,WindDirection,WindDirectionDegrees,WindSpeedMPH,WindSpeedGustMPH,Humidity,HourlyPrecipIn,Conditions,Clouds,dailyrainin,SoftwareType,DateUTC
2013-05-17 00:04:00,43.7,36.6,29.85,SSW,203,4.0,4.0,76,0.00,,,0.00,WeatherTracker,2013-05-17 07:04:00,
2013-05-17 00:09:00,43.7,36.6,29.85,SSW,203,3.0,4.0,76,0.00,,,0.00,WeatherTracker,2013-05-17 07:09:00,
2013-05-17 00:14:00,43.5,36.4,29.85,SSW,203,0.0,4.0,76,0.00,,,0.00,WeatherTracker,2013-05-17 07:14:00,
2013-05-17 00:19:00,43.4,36.7,29.85,SSW,203,0.0,4.0,77,0.00,,,0.00,WeatherTracker,2013-05-17 07:19:00,
2013-05-17 00:24:00,43.2,36.8,29.84,SSW,205,4.0,4.0,78,0.00,,,0.00,WeatherTracker,2013-05-17 07:24:00,
2013-05-17 00:29:00,43.7,37.3,29.85,SSW,208,4.0,0.0,78,0.00,,,0.00,WeatherTracker,2013-05-17 07:29:00,
2013-05-17 00:34:00,43.7,37.0,29.85,SSW,209,3.0,5.0,77,0.00,,,0.00,WeatherTracker,2013-05-17 07:34:00,
2013-05-17 00:39:00,43.9,36.8,29.85,SSW,209,4.0,5.0,76,0.00,,,0.00,WeatherTracker,2013-05-17 07:39:00,
2013-05-17 00:44:00,44.5,36.7,29.85,SSW,209,3.0,5.0,74,0.00,,,0.00,WeatherTracker,2013-05-17 07:44:00,
2013-05-17 00:49:00,45.0,36.9,29.85,SSW,209,3.0,5.0,73,0.00,,,0.00,WeatherTracker,2013-05-17 07:49:00,
2013-05-17 00:55:00,45.3,37.2,29.85,SSW,209,0.0,4.0,73,0.00,,,0.00,WeatherTracker,2013-05-17 07:55:00,
2013-05-17 01:00:00,44.9,36.4,29.85,SSW,209,0.0,3.0,72,0.00,,,0.00,WeatherTracker,2013-05-17 08:00:00,
2013-05-17 01:05:00,44.4,36.6,29.85,SSW,208,0.0,3.0,74,0.00,,,0.00,WeatherTracker,2013-05-17 08:05:00,
2013-05-17 01:10:00,43.9,36.2,29.85,SE,140,5.0,5.0,74,0.00,,,0.00,WeatherTracker,2013-05-17 08:10:00,
2013-05-17 01:15:00,42.8,36.1,29.85,SE,140,2.0,5.0,77,0.00,,,0.00,WeatherTracker,2013-05-17 08:15:00,
2013-05-17 01:20:00,42.0,35.6,29.85,SE,141,3.0,5.0,78,0.00,,,0.00,WeatherTracker,2013-05-17 08:20:00,
2013-05-17 01:25:00,41.9,36.2,29.85,SE,141,3.0,3.0,80,0.00,,,0.00,WeatherTracker,2013-05-17 08:25:00,
2013-05-17 01:30:00,41.9,36.2,29.85,SE,142,2.0,3.0,80,0.00,,,0.00,WeatherTracker,2013-05-17 08:30:00,
2013-05-17 01:35:00,41.6,36.2,29.84,SE,142,2.0,3.0,81,0.00,,,0.00,WeatherTracker,2013-05-17 08:35:00,
2013-05-17 01:40:00,41.7,36.3,29.84,SE,141,0.0,2.0,81,0.00,,,0.00,WeatherTracker,2013-05-17 08:40:00,
2013-05-17 01:45:00,41.9,36.2,29.84,SE,142,4.0,4.0,80,0.00,,,0.00,WeatherTracker,2013-05-17 08:45:00,
2013-05-17 01:50:00,41.9,36.2,29.84,SE,144,2.0,5.0,80,0.00,,,0.00,WeatherTracker,2013-05-17 08:50:00,
2013-05-17 01:55:00,42.5,35.8,29.84,SE,143,3.0,5.0,77,0.00,,,0.00,WeatherTracker,2013-05-17 08:55:00,
2013-05-17 02:00:00,42.5,35.5,29.84,SE,144,1.0,4.0,76,0.00,,,0.00,WeatherTracker,2013-05-17 09:00:00,
2013-05-17 02:05:00,42.3,35.3,29.84,SE,144,0.0,4.0,76,0.00,,,0.00,WeatherTracker,2013-05-17 09:05:00,
2013-05-17 02:10:00,42.2,35.5,29.84,SE,144,1.0,4.0,77,0.00,,,0.00,WeatherTracker,2013-05-17 09:10:00,
2013-05-17 02:15:00,41.7,34.7,29.83,SSE,148,3.0,5.0,76,0.00,,,0.00,WeatherTracker,2013-05-17 09:15:00,
2013-05-17 02:21:00,41.4,35.1,29.84,SE,145,0.0,5.0,78,0.00,,,0.00,WeatherTracker,2013-05-17 09:21:00,
2013-05-17 02:26:00,40.9,34.3,29.84,SE,146,1.0,3.0,77,0.00,,,0.00,WeatherTracker,2013-05-17 09:26:00,
2013-05-17 02:31:00,40.4,34.4,29.84,SE,146,0.0,2.0,79,0.00,,,0.00,WeatherTracker,2013-05-17 09:31:00,
2013-05-17 02:36:00,40.1,34.4,29.84,SSE,147,2.0,2.0,80,0.00,,,0.00,WeatherTracker,2013-05-17 09:36:00,
2013-05-17 02:41:00,40.0,34.6,29.84,SSE,148,3.0,4.0,81,0.00,,,0.00,WeatherTracker,2013-05-17 09:41:00,
2013-05-17 02:46:00,40.4,35.0,29.84,SSE,148,2.0,4.0,81,0.00,,,0.00,WeatherTracker,2013-05-17 09:46:00,
2013-05-17 02:51:00,40.7,35.0,29.84,SSE,148,1.0,3.0,80,0.00,,,0.00,WeatherTracker,2013-05-17 09:51:00,
2013-05-17 02:56:00,40.4,34.4,29.84,SSE,148,0.0,3.0,79,0.00,,,0.00,WeatherTracker,2013-05-17 09:56:00,
2013-05-17 03:01:00,40.3,34.6,29.84,SSE,148,2.0,2.0,80,0.00,,,0.00,WeatherTracker,2013-05-17 10:01:00,
2013-05-17 03:06:00,40.2,34.5,29.85,SE,145,3.0,4.0,80,0.00,,,0.00,WeatherTracker,2013-05-17 10:06:00,
2013-05-17 03:11:00,39.4,34.1,29.84,SE,142,3.0,6.0,81,0.00,,,0.00,WeatherTracker,2013-05-17 10:11:00,
2013-05-17 03:16:00,38.4,33.4,29.84,SE,143,1.0,6.0,82,0.00,,,0.00,WeatherTracker,2013-05-17 10:16:00,
2013-05-17 03:21:00,37.9,33.8,29.84,SE,144,2.0,4.0,85,0.00,,,0.00,WeatherTracker,2013-05-17 10:21:00,
2013-05-17 03:26:00,38.2,34.7,29.84,SE,144,0.0,3.0,87,0.00,,,0.00,WeatherTracker,2013-05-17 10:26:00,
2013-05-17 03:31:00,38.5,35.0,29.84,SE,144,1.0,2.0,87,0.00,,,0.00,WeatherTracker,2013-05-17 10:31:00,
2013-05-17 03:36:00,38.9,35.1,29.84,SE,144,1.0,2.0,86,0.00,,,0.00,WeatherTracker,2013-05-17 10:36:00,
2013-05-17 03:41:00,39.3,35.5,29.84,SE,144,1.0,3.0,86,0.00,,,0.00,WeatherTracker,2013-05-17 10:41:00,
2013-05-17 03:46:00,39.5,35.1,29.84,SE,144,0.0,3.0,84,0.00,,,0.00,WeatherTracker,2013-05-17 10:46:00,
2013-05-17 03:52:00,39.3,34.6,29.84,SE,144,2.0,2.0,83,0.00,,,0.00,WeatherTracker,2013-05-17 10:52:00,
2013-05-17 03:57:00,39.0,34.3,29.84,SE,144,0.0,3.0,83,0.00,,,0.00,WeatherTracker,2013-05-17 10:57:00,
2013-05-17 04:02:00,39.2,34.5,29.85,SE,142,1.0,3.0,83,0.00,,,0.00,WeatherTracker,2013-05-17 11:02:00,
2013-05-17 04:07:00,39.0,34.0,29.84,SE,144,0.0,3.0,82,0.00,,,0.00,WeatherTracker,2013-05-17 11:07:00,
2013-05-17 04:12:00,39.1,34.4,29.84,SE,144,0.0,4.0,83,0.00,,,0.00,WeatherTracker,2013-05-17 11:12:00,
2013-05-17 04:17:00,39.4,34.1,29.85,SE,144,0.0,4.0,81,0.00,,,0.00,WeatherTracker,2013-05-17 11:17:00,
2013-05-17 04:22:00,39.3,34.0,29.85,North,360,0.0,3.0,81,0.00,,,0.00,WeatherTracker,2013-05-17 11:22:00,
2013-05-17 04:27:00,39.3,34.3,29.85,SE,145,2.0,2.0,82,0.00,,,0.00,WeatherTracker,2013-05-17 11:27:00,
2013-05-17 04:32:00,39.4,34.4,29.85,SE,144,2.0,3.0,82,0.00,,,0.00,WeatherTracker,2013-05-17 11:32:00,
2013-05-17 04:37:00,39.5,34.5,29.85,SE,144,4.0,4.0,82,0.00,,,0.00,WeatherTracker,2013-05-17 11:37:00,
2013-05-17 04:42:00,39.7,34.4,29.85,SSE,153,4.0,4.0,81,0.00,,,0.00,WeatherTracker,2013-05-17 11:42:00,
2013-05-17 04:47:00,39.8,34.8,29.84,SSE,153,1.0,4.0,82,0.00,,,0.00,WeatherTracker,2013-05-17 11:47:00,
2013-05-17 04:52:00,39.8,34.5,29.84,SSE,153,2.0,4.0,81,0.00,,,0.00,WeatherTracker,2013-05-17 11:52:00,
2013-05-17 04:57:00,39.3,33.7,29.85,North,360,3.0,4.0,80,0.00,,,0.00,WeatherTracker,2013-05-17 11:57:00,
2013-05-17 05:02:00,38.3,33.6,29.84,SSE,148,1.0,4.0,83,0.00,,,0.00,WeatherTracker,2013-05-17 12:02:00,
2013-05-17 05:07:00,37.7,33.0,29.85,North,360,2.0,4.0,83,0.00,,,0.00,WeatherTracker,2013-05-17 12:07:00,
2013-05-17 05:12:00,37.1,32.7,29.84,SSE,148,2.0,3.0,84,0.00,,,0.00,WeatherTracker,2013-05-17 12:12:00,
2013-05-17 05:17:00,36.6,32.8,29.85,SSE,150,1.0,3.0,86,0.00,,,0.00,WeatherTracker,2013-05-17 12:17:00,
2013-05-17 05:22:00,36.6,32.8,29.85,SSE,150,0.0,4.0,86,0.00,,,0.00,WeatherTracker,2013-05-17 12:22:00,
2013-05-17 05:27:00,37.0,33.5,29.85,SSE,150,3.0,4.0,87,0.00,,,0.00,WeatherTracker,2013-05-17 12:27:00,
2013-05-17 05:32:00,37.5,33.7,29.85,SSE,152,2.0,3.0,86,0.00,,,0.00,WeatherTracker,2013-05-17 12:32:00,
2013-05-17 05:37:00,38.2,33.8,29.85,North,360,0.0,3.0,84,0.00,,,0.00,WeatherTracker,2013-05-17 12:37:00,
2013-05-17 05:42:00,38.0,33.3,29.86,SSE,153,0.0,3.0,83,0.00,,,0.00,WeatherTracker,2013-05-17 12:42:00,
2013-05-17 05:47:00,37.9,33.5,29.86,North,360,1.0,2.0,84,0.00,,,0.00,WeatherTracker,2013-05-17 12:47:00,
2013-05-17 05:52:00,37.3,32.6,29.85,SE,141,2.0,2.0,83,0.00,,,0.00,WeatherTracker,2013-05-17 12:52:00,
2013-05-17 05:57:00,36.5,32.4,29.85,SE,141,1.0,5.0,85,0.00,,,0.00,WeatherTracker,2013-05-17 12:57:00,
2013-05-17 06:02:00,36.2,32.4,29.85,SE,144,2.0,5.0,86,0.00,,,0.00,WeatherTracker,2013-05-17 13:02:00,
2013-05-17 06:07:00,36.6,33.1,29.86,SE,146,2.0,3.0,87,0.00,,,0.00,WeatherTracker,2013-05-17 13:07:00,
2013-05-17 06:12:00,37.0,33.2,29.86,North,360,3.0,3.0,86,0.00,,,0.00,WeatherTracker,2013-05-17 13:12:00,
2013-05-17 06:18:00,37.7,33.6,29.86,SE,144,1.0,4.0,85,0.00,,,0.00,WeatherTracker,2013-05-17 13:18:00,
2013-05-17 06:23:00,38.1,33.7,29.86,SE,142,3.0,4.0,84,0.00,,,0.00,WeatherTracker,2013-05-17 13:23:00,
2013-05-17 06:28:00,38.4,34.0,29.86,SE,142,1.0,5.0,84,0.00,,,0.00,WeatherTracker,2013-05-17 13:28:00,
2013-05-17 06:33:00,38.7,34.0,29.86,SE,142,0.0,5.0,83,0.00,,,0.00,WeatherTracker,2013-05-17 13:33:00,
2013-05-17 06:38:00,39.3,34.9,29.86,SE,142,0.0,3.0,84,0.00,,,0.00,WeatherTracker,2013-05-17 13:38:00,
2013-05-17 06:43:00,39.7,34.7,29.87,SE,143,1.0,3.0,82,0.00,,,0.00,WeatherTracker,2013-05-17 13:43:00,
2013-05-17 06:48:00,40.1,35.4,29.87,SE,142,2.0,2.0,83,0.00,,,0.00,WeatherTracker,2013-05-17 13:48:00,
2013-05-17 06:53:00,40.6,36.2,29.87,SE,142,0.0,3.0,84,0.00,,,0.00,WeatherTracker,2013-05-17 13:53:00,
2013-05-17 06:58:00,41.0,36.5,29.87,SE,144,0.0,3.0,84,0.00,,,0.00,WeatherTracker,2013-05-17 13:58:00,
2013-05-17 07:03:00,41.4,36.6,29.87,SE,144,3.0,4.0,83,0.00,,,0.00,WeatherTracker,2013-05-17 14:03:00,
2013-05-17 07:08:00,41.8,37.0,29.87,SE,143,0.0,4.0,83,0.00,,,0.00,WeatherTracker,2013-05-17 14:08:00,
2013-05-17 07:13:00,42.3,37.2,29.87,SE,143,0.0,3.0,82,0.00,,,0.00,WeatherTracker,2013-05-17 14:13:00,
2013-05-17 07:18:00,43.2,38.1,29.87,SE,143,1.0,2.0,82,0.00,,,0.00,WeatherTracker,2013-05-17 14:18:00,
2013-05-17 07:23:00,44.3,38.2,29.87,SSE,148,3.0,3.0,79,0.00,,,0.00,WeatherTracker,2013-05-17 14:23:00,
2013-05-17 07:28:00,44.7,38.3,29.87,WNW,283,5.0,5.0,78,0.00,,,0.00,WeatherTracker,2013-05-17 14:28:00,
2013-05-17 07:33:00,45.1,38.7,29.87,NNW,330,7.0,7.0,78,0.00,,,0.00,WeatherTracker,2013-05-17 14:33:00,
2013-05-17 07:38:00,45.6,39.1,29.87,NNW,345,4.0,7.0,78,0.00,,,0.00,WeatherTracker,2013-05-17 14:38:00,
2013-05-17 07:43:00,46.3,39.8,29.87,NNW,346,4.0,9.0,78,0.00,,,0.00,WeatherTracker,2013-05-17 14:43:00,
2013-05-17 07:48:00,47.0,39.5,29.87,North,355,5.0,9.0,75,0.00,,,0.00,WeatherTracker,2013-05-17 14:48:00,
2013-05-17 07:53:00,47.3,39.4,29.87,North,360,2.0,6.0,74,0.00,,,0.00,WeatherTracker,2013-05-17 14:53:00,
2013-05-17 07:58:00,47.6,40.1,29.87,North,360,2.0,5.0,75,0.00,,,0.00,WeatherTracker,2013-05-17 14:58:00,
2013-05-17 08:03:00,48.4,41.2,29.87,North,9,2.0,5.0,76,0.00,,,0.00,WeatherTracker,2013-05-17 15:03:00,
2013-05-17 08:08:00,48.7,40.1,29.87,North,9,1.0,5.0,72,0.00,,,0.00,WeatherTracker,2013-05-17 15:08:00,
2013-05-17 08:13:00,49.1,39.7,29.87,North,5,3.0,5.0,70,0.00,,,0.00,WeatherTracker,2013-05-17 15:13:00,
2013-05-17 08:18:00,49.3,39.2,29.87,NNE,16,3.0,4.0,68,0.00,,,0.00,WeatherTracker,2013-05-17 15:18:00,
2013-05-17 08:23:00,49.5,39.4,29.87,NNE,19,3.0,5.0,68,0.00,,,0.00,WeatherTracker,2013-05-17 15:23:00,
2013-05-17 08:28:00,50.2,39.7,29.87,NNE,17,4.0,6.0,67,0.00,,,0.00,WeatherTracker,2013-05-17 15:28:00,
2013-05-17 08:33:00,50.8,39.9,29.87,North,360,3.0,6.0,66,0.00,,,0.00,WeatherTracker,2013-05-17 15:33:00,
2013-05-17 08:39:00,51.4,40.8,29.87,North,5,6.0,7.0,67,0.00,,,0.00,WeatherTracker,2013-05-17 15:39:00,
2013-05-17 08:44:00,51.7,39.1,29.87,NNE,17,5.0,7.0,62,0.00,,,0.00,WeatherTracker,2013-05-17 15:44:00,
2013-05-17 08:49:00,51.9,39.3,29.87,North,5,6.0,6.0,62,0.00,,,0.00,WeatherTracker,2013-05-17 15:49:00,
2013-05-17 08:54:00,52.3,38.8,29.87,NNE,13,5.0,7.0,60,0.00,,,0.00,WeatherTracker,2013-05-17 15:54:00,
2013-05-17 08:59:00,52.9,39.4,29.87,NNE,17,3.0,7.0,60,0.00,,,0.00,WeatherTracker,2013-05-17 15:59:00,
2013-05-17 09:04:00,53.1,39.6,29.87,NNE,24,3.0,7.0,60,0.00,,,0.00,WeatherTracker,2013-05-17 16:04:00,
2013-05-17 09:09:00,53.5,40.0,29.87,North,360,5.0,7.0,60,0.00,,,0.00,WeatherTracker,2013-05-17 16:09:00,
2013-05-17 09:14:00,53.4,38.6,29.87,NE,42,2.0,7.0,57,0.00,,,0.00,WeatherTracker,2013-05-17 16:14:00,
2013-05-17 09:19:00,53.8,40.2,29.86,NNE,17,6.0,7.0,60,0.00,,,0.00,WeatherTracker,2013-05-17 16:19:00,
2013-05-17 09:24:00,54.0,38.7,29.86,North,9,3.0,7.0,56,0.00,,,0.00,WeatherTracker,2013-05-17 16:24:00,
2013-05-17 09:29:00,54.4,40.4,29.86,NE,44,2.0,7.0,59,0.00,,,0.00,WeatherTracker,2013-05-17 16:29:00,
2013-05-17 09:34:00,55.1,38.3,29.86,NE,44,2.0,7.0,53,0.00,,,0.00,WeatherTracker,2013-05-17 16:34:00,
2013-05-17 09:39:00,55.7,38.3,29.86,NE,40,3.0,7.0,52,0.00,,,0.00,WeatherTracker,2013-05-17 16:39:00,
2013-05-17 09:44:00,55.8,40.3,29.86,NE,42,3.0,5.0,56,0.00,,,0.00,WeatherTracker,2013-05-17 16:44:00,
2013-05-17 09:49:00,55.4,38.6,29.86,NE,44,2.0,7.0,53,0.00,,,0.00,WeatherTracker,2013-05-17 16:49:00,
2013-05-17 09:54:00,55.7,39.3,29.85,NE,43,3.0,7.0,54,0.00,,,0.00,WeatherTracker,2013-05-17 16:54:00,
2013-05-17 09:59:00,55.7,38.8,29.85,NE,49,2.0,7.0,53,0.00,,,0.00,WeatherTracker,2013-05-17 16:59:00,
2013-05-17 10:04:00,56.2,37.8,29.85,ENE,69,3.0,7.0,50,0.00,,,0.00,WeatherTracker,2013-05-17 17:04:00,
2013-05-17 10:10:00,56.7,37.2,29.86,ENE,69,3.0,6.0,48,0.00,,,0.00,WeatherTracker,2013-05-17 17:10:00,
2013-05-17 10:15:00,57.1,38.1,29.85,ENE,68,2.0,5.0,49,0.00,,,0.00,WeatherTracker,2013-05-17 17:15:00,
2013-05-17 10:20:00,57.3,36.7,29.85,NE,35,0.0,9.0,46,0.00,,,0.00,WeatherTracker,2013-05-17 17:20:00,
2013-05-17 10:25:00,57.4,38.4,29.85,NE,37,5.0,9.0,49,0.00,,,0.00,WeatherTracker,2013-05-17 17:25:00,
2013-05-17 10:30:00,57.3,37.2,29.85,North,360,2.0,8.0,47,0.00,,,0.00,WeatherTracker,2013-05-17 17:30:00,
2013-05-17 10:35:00,57.3,36.1,29.85,North,9,5.0,9.0,45,0.00,,,0.00,WeatherTracker,2013-05-17 17:35:00,
2013-05-17 10:40:00,57.1,36.5,29.85,NNE,28,3.0,11.0,46,0.00,,,0.00,WeatherTracker,2013-05-17 17:40:00,
2013-05-17 10:45:00,57.1,36.0,29.86,NE,34,4.0,14.0,45,0.00,,,0.00,WeatherTracker,2013-05-17 17:45:00,
2013-05-17 10:50:00,57.8,39.8,29.86,ENE,60,3.0,14.0,51,0.00,,,0.00,WeatherTracker,2013-05-17 17:50:00,
2013-05-17 10:55:00,57.8,36.0,29.85,ENE,59,8.0,11.0,44,0.00,,,0.00,WeatherTracker,2013-05-17 17:55:00,
2013-05-17 11:00:00,57.9,35.5,29.85,NE,55,4.0,9.0,43,0.00,,,0.00,WeatherTracker,2013-05-17 18:00:00,
2013-05-17 11:05:00,58.3,39.2,29.85,ENE,69,4.0,10.0,49,0.00,,,0.00,WeatherTracker,2013-05-17 18:05:00,
2013-05-17 11:10:00,58.6,39.5,29.85,East,82,7.0,10.0,49,0.00,,,0.00,WeatherTracker,2013-05-17 18:10:00,
2013-05-17 11:15:00,58.5,38.3,29.85,ENE,57,5.0,11.0,47,0.00,,,0.00,WeatherTracker,2013-05-17 18:15:00,
2013-05-17 11:20:00,59.1,38.9,29.85,NNE,18,4.0,11.0,47,0.00,,,0.00,WeatherTracker,2013-05-17 18:20:00,
2013-05-17 11:25:00,59.9,41.7,29.86,ENE,68,8.0,9.0,51,0.00,,,0.00,WeatherTracker,2013-05-17 18:25:00,
2013-05-17 11:30:00,60.3,39.4,29.86,ENE,71,6.0,10.0,46,0.00,,,0.00,WeatherTracker,2013-05-17 18:30:00,
2013-05-17 11:35:00,60.1,38.1,29.86,NE,47,5.0,10.0,44,0.00,,,0.00,WeatherTracker,2013-05-17 18:35:00,
2013-05-17 11:40:00,60.2,37.0,29.86,NE,51,2.0,9.0,42,0.00,,,0.00,WeatherTracker,2013-05-17 18:40:00,
2013-05-17 11:45:00,60.5,37.3,29.85,East,98,5.0,6.0,42,0.00,,,0.00,WeatherTracker,2013-05-17 18:45:00,
2013-05-17 11:50:00,61.0,38.3,29.85,ESE,102,1.0,7.0,43,0.00,,,0.00,WeatherTracker,2013-05-17 18:50:00,
2013-05-17 11:55:00,61.5,35.7,29.85,ESE,112,1.0,7.0,38,0.00,,,0.00,WeatherTracker,2013-05-17 18:55:00,
2013-05-17 12:00:00,61.7,37.8,29.86,North,360,9.0,9.0,41,0.00,,,0.00,WeatherTracker,2013-05-17 19:00:00,
2013-05-17 12:05:00,62.7,36.0,29.86,East,99,5.0,10.0,37,0.00,,,0.00,WeatherTracker,2013-05-17 19:05:00,
2013-05-17 12:11:00,62.3,32.1,29.85,SW,236,3.0,11.0,32,0.00,,,0.00,WeatherTracker,2013-05-17 19:11:00,
2013-05-17 12:16:00,62.4,32.9,29.85,WNW,288,6.0,11.0,33,0.00,,,0.00,WeatherTracker,2013-05-17 19:16:00,
2013-05-17 12:21:00,62.5,35.9,29.85,WNW,302,2.0,14.0,37,0.00,,,0.00,WeatherTracker,2013-05-17 19:21:00,
2013-05-17 12:26:00,62.6,36.6,29.85,SE,125,4.0,15.0,38,0.00,,,0.00,WeatherTracker,2013-05-17 19:26:00,
2013-05-17 12:31:00,63.1,37.7,29.85,SW,236,9.0,15.0,39,0.00,,,0.00,WeatherTracker,2013-05-17 19:31:00,
2013-05-17 12:36:00,62.9,36.9,29.85,SE,128,2.0,16.0,38,0.00,,,0.00,WeatherTracker,2013-05-17 19:36:00,
2013-05-17 12:41:00,62.7,35.4,29.85,East,95,11.0,21.0,36,0.00,,,0.00,WeatherTracker,2013-05-17 19:41:00,
2013-05-17 12:46:00,62.4,36.5,29.85,SSE,160,3.0,21.0,38,0.00,,,0.00,WeatherTracker,2013-05-17 19:46:00,
2013-05-17 12:51:00,62.6,36.6,29.84,SW,215,16.0,16.0,38,0.00,,,0.00,WeatherTracker,2013-05-17 19:51:00,
2013-05-17 12:56:00,62.6,37.3,29.85,ESE,121,17.0,18.0,39,0.00,,,0.00,WeatherTracker,2013-05-17 19:56:00,
2013-05-17 13:01:00,62.8,34.7,29.85,South,175,9.0,19.0,35,0.00,,,0.00,WeatherTracker,2013-05-17 20:01:00,
2013-05-17 13:06:00,62.7,34.7,29.85,SW,215,3.0,19.0,35,0.00,,,0.00,WeatherTracker,2013-05-17 20:06:00,
2013-05-17 13:11:00,62.9,34.8,29.85,South,169,9.0,15.0,35,0.00,,,0.00,WeatherTracker,2013-05-17 20:11:00,
2013-05-17 13:16:00,62.5,35.2,29.85,ESE,109,14.0,24.0,36,0.00,,,0.00,WeatherTracker,2013-05-17 20:16:00,
2013-05-17 13:21:00,62.7,36.7,29.85,SE,130,9.0,24.0,38,0.00,,,0.00,WeatherTracker,2013-05-17 20:21:00,
2013-05-17 13:26:00,63.2,35.1,29.84,ESE,117,13.0,22.0,35,0.00,,,0.00,WeatherTracker,2013-05-17 20:26:00,
2013-05-17 13:31:00,63.3,36.6,29.84,East,95,10.0,21.0,37,0.00,,,0.00,WeatherTracker,2013-05-17 20:31:00,
2013-05-17 13:36:00,63.6,36.2,29.84,SSE,168,6.0,21.0,36,0.00,,,0.00,WeatherTracker,2013-05-17 20:36:00,
2013-05-17 13:41:00,64.0,35.8,29.84,SSW,204,7.0,21.0,35,0.00,,,0.00,WeatherTracker,2013-05-17 20:41:00,
2013-05-17 13:46:00,64.0,33.5,29.85,SSE,148,13.0,15.0,32,0.00,,,0.00,WeatherTracker,2013-05-17 20:46:00,
2013-05-17 13:51:00,63.3,31.3,29.84,East,80,10.0,17.0,30,0.00,,,0.00,WeatherTracker,2013-05-17 20:51:00,
2013-05-17 13:56:00,63.6,34.0,29.84,SSW,196,12.0,21.0,33,0.00,,,0.00,WeatherTracker,2013-05-17 20:56:00,
2013-05-17 14:01:00,63.3,32.1,29.84,SSE,161,10.0,22.0,31,0.00,,,0.00,WeatherTracker,2013-05-17 21:01:00,
2013-05-17 14:06:00,63.2,33.6,29.84,SSW,193,9.0,25.0,33,0.00,,,0.00,WeatherTracker,2013-05-17 21:06:00,
2013-05-17 14:11:00,62.8,30.9,29.84,SSW,192,9.0,25.0,30,0.00,,,0.00,WeatherTracker,2013-05-17 21:11:00,
2013-05-17 14:16:00,63.2,32.1,29.84,SSE,150,7.0,25.0,31,0.00,,,0.00,WeatherTracker,2013-05-17 21:16:00,
2013-05-17 14:21:00,63.1,34.3,29.84,SW,236,11.0,24.0,34,0.00,,,0.00,WeatherTracker,2013-05-17 21:21:00,
2013-05-17 14:26:00,62.8,34.0,29.84,SSW,192,9.0,23.0,34,0.00,,,0.00,WeatherTracker,2013-05-17 21:26:00,
2013-05-17 14:31:00,63.1,35.7,29.84,SSW,196,7.0,23.0,36,0.00,,,0.00,WeatherTracker,2013-05-17 21:31:00,
2013-05-17 14:36:00,63.3,35.9,29.84,ESE,103,5.0,23.0,36,0.00,,,0.00,WeatherTracker,2013-05-17 21:36:00,
2013-05-17 14:41:00,63.7,31.7,29.84,SSW,210,12.0,20.0,30,0.00,,,0.00,WeatherTracker,2013-05-17 21:41:00,
2013-05-17 14:46:00,63.4,34.5,29.84,SW,236,13.0,24.0,34,0.00,,,0.00,WeatherTracker,2013-05-17 21:46:00,
2013-05-17 14:51:00,63.7,34.8,29.84,South,188,15.0,24.0,34,0.00,,,0.00,WeatherTracker,2013-05-17 21:51:00,
2013-05-17 14:56:00,63.5,33.9,29.84,SSE,163,13.0,21.0,33,0.00,,,0.00,WeatherTracker,2013-05-17 21:56:00,
2013-05-17 15:01:00,63.5,33.9,29.84,SW,231,7.0,21.0,33,0.00,,,0.00,WeatherTracker,2013-05-17 22:01:00,
2013-05-17 15:06:00,63.5,31.5,29.84,SSW,206,5.0,21.0,30,0.00,,,0.00,WeatherTracker,2013-05-17 22:06:00,
2013-05-17 15:11:00,63.6,35.4,29.84,SSW,200,10.0,23.0,35,0.00,,,0.00,WeatherTracker,2013-05-17 22:11:00,
2013-05-17 15:16:00,63.4,31.4,29.84,SSW,196,2.0,23.0,30,0.00,,,0.00,WeatherTracker,2013-05-17 22:16:00,
2013-05-17 15:21:00,63.2,35.1,29.84,SSW,206,3.0,24.0,35,0.00,,,0.00,WeatherTracker,2013-05-17 22:21:00,
2013-05-17 15:27:00,62.7,31.6,29.84,WSW,249,13.0,26.0,31,0.00,,,0.00,WeatherTracker,2013-05-17 22:27:00,
2013-05-17 15:32:00,62.8,34.0,29.84,South,169,12.0,26.0,34,0.00,,,0.00,WeatherTracker,2013-05-17 22:32:00,
2013-05-17 15:37:00,63.1,32.8,29.84,SE,133,6.0,21.0,32,0.00,,,0.00,WeatherTracker,2013-05-17 22:37:00,
2013-05-17 15:42:00,63.3,31.3,29.84,SSW,213,5.0,17.0,30,0.00,,,0.00,WeatherTracker,2013-05-17 22:42:00,
2013-05-17 15:47:00,63.4,33.8,29.84,SSE,153,7.0,21.0,33,0.00,,,0.00,WeatherTracker,2013-05-17 22:47:00,
2013-05-17 15:52:00,63.3,32.1,29.84,SSW,213,6.0,21.0,31,0.00,,,0.00,WeatherTracker,2013-05-17 22:52:00,
2013-05-17 15:57:00,63.4,30.6,29.84,SW,217,11.0,15.0,29,0.00,,,0.00,WeatherTracker,2013-05-17 22:57:00,
2013-05-17 16:02:00,63.6,36.2,29.84,SE,137,16.0,16.0,36,0.00,,,0.00,WeatherTracker,2013-05-17 23:02:00,
2013-05-17 16:07:00,63.4,34.5,29.84,South,171,4.0,22.0,34,0.00,,,0.00,WeatherTracker,2013-05-17 23:07:00,
2013-05-17 16:12:00,63.2,34.4,29.84,ESE,119,1.0,22.0,34,0.00,,,0.00,WeatherTracker,2013-05-17 23:12:00,
2013-05-17 16:17:00,63.8,34.1,29.85,SW,219,6.0,16.0,33,0.00,,,0.00,WeatherTracker,2013-05-17 23:17:00,
2013-05-17 16:22:00,62.7,32.4,29.85,SSW,201,12.0,20.0,32,0.00,,,0.00,WeatherTracker,2013-05-17 23:22:00,
2013-05-17 16:27:00,62.3,32.8,29.85,South,171,4.0,23.0,33,0.00,,,0.00,WeatherTracker,2013-05-17 23:27:00,
2013-05-17 16:32:00,62.4,33.7,29.85,SSE,163,11.0,23.0,34,0.00,,,0.00,WeatherTracker,2013-05-17 23:32:00,
2013-05-17 16:37:00,62.3,33.6,29.85,SSE,152,5.0,19.0,34,0.00,,,0.00,WeatherTracker,2013-05-17 23:37:00,
2013-05-17 16:42:00,62.2,34.2,29.85,SSE,167,7.0,19.0,35,0.00,,,0.00,WeatherTracker,2013-05-17 23:42:00,
2013-05-17 16:47:00,62.4,32.2,29.85,SSW,206,7.0,17.0,32,0.00,,,0.00,WeatherTracker,2013-05-17 23:47:00,
2013-05-17 16:52:00,62.3,33.6,29.85,SSW,196,11.0,21.0,34,0.00,,,0.00,WeatherTracker,2013-05-17 23:52:00,
2013-05-17 16:57:00,62.2,34.9,29.85,West,281,10.0,21.0,36,0.00,,,0.00,WeatherTracker,2013-05-17 23:57:00,
2013-05-17 17:02:00,62.2,35.6,29.85,SE,140,15.0,20.0,37,0.00,,,0.00,WeatherTracker,2013-05-18 00:02:00,
2013-05-17 17:08:00,62.0,34.7,29.86,SW,215,10.0,19.0,36,0.00,,,0.00,WeatherTracker,2013-05-18 00:08:00,
2013-05-17 17:13:00,61.9,34.7,29.85,South,184,9.0,21.0,36,0.00,,,0.00,WeatherTracker,2013-05-18 00:13:00,
2013-05-17 17:18:00,62.1,34.8,29.85,SSE,153,3.0,21.0,36,0.00,,,0.00,WeatherTracker,2013-05-18 00:18:00,
2013-05-17 17:23:00,61.8,34.6,29.85,SSE,156,6.0,20.0,36,0.00,,,0.00,WeatherTracker,2013-05-18 00:23:00,
2013-05-17 17:28:00,61.8,34.6,29.85,SSE,164,5.0,20.0,36,0.00,,,0.00,WeatherTracker,2013-05-18 00:28:00,
2013-05-17 17:33:00,61.7,30.0,29.85,SSW,207,5.0,29.0,30,0.00,,,0.00,WeatherTracker,2013-05-18 00:33:00,
2013-05-17 17:38:00,61.4,31.3,29.86,SSW,196,15.0,29.0,32,0.00,,,0.00,WeatherTracker,2013-05-18 00:38:00,
2013-05-17 17:43:00,61.4,33.5,29.86,ESE,103,4.0,22.0,35,0.00,,,0.00,WeatherTracker,2013-05-18 00:43:00,
2013-05-17 17:48:00,61.5,32.9,29.86,SSW,198,0.0,22.0,34,0.00,,,0.00,WeatherTracker,2013-05-18 00:48:00,
2013-05-17 17:53:00,61.3,32.0,29.85,SE,133,7.0,16.0,33,0.00,,,0.00,WeatherTracker,2013-05-18 00:53:00,
2013-05-17 17:58:00,60.7,33.6,29.85,ESE,120,11.0,20.0,36,0.00,,,0.00,WeatherTracker,2013-05-18 00:58:00,
2013-05-17 18:03:00,60.5,31.3,29.85,SSE,157,8.0,20.0,33,0.00,,,0.00,WeatherTracker,2013-05-18 01:03:00,
2013-05-17 18:08:00,60.4,29.6,29.85,SSW,202,4.0,24.0,31,0.00,,,0.00,WeatherTracker,2013-05-18 01:08:00,
2013-05-17 18:13:00,60.0,30.8,29.86,SW,214,16.0,24.0,33,0.00,,,0.00,WeatherTracker,2013-05-18 01:13:00,
2013-05-17 18:18:00,60.1,31.6,29.86,ESE,107,6.0,28.0,34,0.00,,,0.00,WeatherTracker,2013-05-18 01:18:00,
2013-05-17 18:23:00,60.2,31.7,29.86,SSW,199,12.0,28.0,34,0.00,,,0.00,WeatherTracker,2013-05-18 01:23:00,
2013-05-17 18:28:00,60.0,31.6,29.86,SSE,168,7.0,22.0,34,0.00,,,0.00,WeatherTracker,2013-05-18 01:28:00,
2013-05-17 18:33:00,59.9,31.5,29.86,SSE,157,5.0,22.0,34,0.00,,,0.00,WeatherTracker,2013-05-18 01:33:00,
2013-05-17 18:38:00,59.8,31.4,29.86,SW,224,8.0,22.0,34,0.00,,,0.00,WeatherTracker,2013-05-18 01:38:00,
2013-05-17 18:43:00,60.0,28.5,29.86,South,186,11.0,18.0,30,0.00,,,0.00,WeatherTracker,2013-05-18 01:43:00,
2013-05-17 18:48:00,60.2,26.1,29.86,ESE,105,9.0,21.0,27,0.00,,,0.00,WeatherTracker,2013-05-18 01:48:00,
2013-05-17 18:53:00,60.3,31.1,29.86,NE,55,2.0,21.0,33,0.00,,,0.00,WeatherTracker,2013-05-18 01:53:00,
2013-05-17 18:58:00,60.3,33.2,29.86,ESE,110,6.0,21.0,36,0.00,,,0.00,WeatherTracker,2013-05-18 01:58:00,
2013-05-17 19:03:00,60.1,30.9,29.87,NE,37,4.0,15.0,33,0.00,,,0.00,WeatherTracker,2013-05-18 02:03:00,
2013-05-17 19:09:00,60.1,32.4,29.87,NE,49,0.0,9.0,35,0.00,,,0.00,WeatherTracker,2013-05-18 02:09:00,
2013-05-17 19:14:00,59.4,31.7,29.87,South,182,3.0,7.0,35,0.00,,,0.00,WeatherTracker,2013-05-18 02:14:00,
2013-05-17 19:19:00,59.0,29.9,29.88,South,182,0.0,5.0,33,0.00,,,0.00,WeatherTracker,2013-05-18 02:19:00,
2013-05-17 19:24:00,59.0,30.7,29.88,South,182,1.0,5.0,34,0.00,,,0.00,WeatherTracker,2013-05-18 02:24:00,
2013-05-17 19:29:00,59.0,32.1,29.88,South,183,0.0,2.0,36,0.00,,,0.00,WeatherTracker,2013-05-18 02:29:00,
2013-05-17 19:34:00,59.0,31.4,29.88,NNE,28,0.0,4.0,35,0.00,,,0.00,WeatherTracker,2013-05-18 02:34:00,
2013-05-17 19:39:00,58.8,31.2,29.88,NNW,347,4.0,4.0,35,0.00,,,0.00,WeatherTracker,2013-05-18 02:39:00,
2013-05-17 19:44:00,58.2,31.4,29.89,NNW,338,1.0,4.0,36,0.00,,,0.00,WeatherTracker,2013-05-18 02:44:00,
2013-05-17 19:49:00,57.7,31.6,29.89,NNW,338,0.0,4.0,37,0.00,,,0.00,WeatherTracker,2013-05-18 02:49:00,
2013-05-17 19:54:00,56.7,30.7,29.89,ENE,75,1.0,3.0,37,0.00,,,0.00,WeatherTracker,2013-05-18 02:54:00,
2013-05-17 19:59:00,56.3,32.9,29.90,ENE,73,3.0,3.0,41,0.00,,,0.00,WeatherTracker,2013-05-18 02:59:00,
2013-05-17 20:04:00,55.1,31.2,29.90,ENE,71,4.0,5.0,40,0.00,,,0.00,WeatherTracker,2013-05-18 03:04:00,
2013-05-17 20:09:00,54.9,31.0,29.90,NNW,348,10.0,10.0,40,0.00,,,0.00,WeatherTracker,2013-05-18 03:09:00,
2013-05-17 20:14:00,55.6,28.4,29.90,NE,35,10.0,10.0,35,0.00,,,0.00,WeatherTracker,2013-05-18 03:14:00,
2013-05-17 20:19:00,55.3,29.5,29.90,NNE,19,9.0,12.0,37,0.00,,,0.00,WeatherTracker,2013-05-18 03:19:00,
2013-05-17 20:24:00,54.6,28.9,29.91,NNE,23,4.0,12.0,37,0.00,,,0.00,WeatherTracker,2013-05-18 03:24:00,
2013-05-17 20:29:00,54.9,29.1,29.91,NE,40,5.0,12.0,37,0.00,,,0.00,WeatherTracker,2013-05-18 03:29:00,
2013-05-17 20:34:00,55.6,19.4,29.91,NNE,16,2.0,16.0,24,0.00,,,0.00,WeatherTracker,2013-05-18 03:34:00,
2013-05-17 20:39:00,55.8,27.1,29.91,East,88,3.0,16.0,33,0.00,,,0.00,WeatherTracker,2013-05-18 03:39:00,
2013-05-17 20:44:00,54.2,30.4,29.91,ENE,75,7.0,7.0,40,0.00,,,0.00,WeatherTracker,2013-05-18 03:44:00,
2013-05-17 20:50:00,54.4,25.2,29.91,NE,40,2.0,14.0,32,0.00,,,0.00,WeatherTracker,2013-05-18 03:50:00,
2013-05-17 20:55:00,53.7,24.6,29.91,SSW,207,3.0,14.0,32,0.00,,,0.00,WeatherTracker,2013-05-18 03:55:00,
2013-05-17 21:00:00,54.1,24.1,29.92,SSW,208,2.0,6.0,31,0.00,,,0.00,WeatherTracker,2013-05-18 04:00:00,
2013-05-17 21:01:00,54.2,24.2,29.92,SSW,207,2.0,6.0,31,0.00,,,0.00,WeatherTracker,2013-05-18 04:01:00,
2013-05-17 21:06:00,53.9,24.0,29.92,South,178,1.0,5.0,31,0.00,,,0.00,WeatherTracker,2013-05-18 04:06:00,
2013-05-17 21:11:00,53.7,23.0,29.93,South,173,2.0,6.0,30,0.00,,,0.00,WeatherTracker,2013-05-18 04:11:00,
2013-05-17 21:16:00,53.7,24.6,29.93,ENE,67,4.0,6.0,32,0.00,,,0.00,WeatherTracker,2013-05-18 04:16:00,
2013-05-17 21:21:00,53.5,24.4,29.93,ENE,67,2.0,5.0,32,0.00,,,0.00,WeatherTracker,2013-05-18 04:21:00,
2013-05-17 21:26:00,53.1,26.2,29.94,East,98,5.0,6.0,35,0.00,,,0.00,WeatherTracker,2013-05-18 04:26:00,
2013-05-17 21:31:00,52.1,31.4,29.94,ESE,121,3.0,6.0,45,0.00,,,0.00,WeatherTracker,2013-05-18 04:31:00,
2013-05-17 21:36:00,50.3,31.4,29.94,North,360,6.0,9.0,48,0.00,,,0.00,WeatherTracker,2013-05-18 04:36:00,
2013-05-17 21:41:00,49.9,31.0,29.95,North,360,6.0,11.0,48,0.00,,,0.00,WeatherTracker,2013-05-18 04:41:00,
2013-05-17 21:46:00,50.1,30.7,29.95,SE,129,3.0,11.0,47,0.00,,,0.00,WeatherTracker,2013-05-18 04:46:00,
2013-05-17 21:52:00,50.4,30.4,29.95,SE,142,4.0,9.0,46,0.00,,,0.00,WeatherTracker,2013-05-18 04:52:00,
2013-05-17 21:57:00,50.3,30.8,29.96,SE,139,3.0,10.0,47,0.00,,,0.00,WeatherTracker,2013-05-18 04:57:00,
2013-05-17 22:02:00,50.3,30.3,29.96,North,360,3.0,10.0,46,0.00,,,0.00,WeatherTracker,2013-05-18 05:02:00,
2013-05-17 22:07:00,50.1,30.7,29.97,SSE,155,1.0,7.0,47,0.00,,,0.00,WeatherTracker,2013-05-18 05:07:00,
2013-05-17 22:12:00,50.0,29.0,29.97,North,360,3.0,5.0,44,0.00,,,0.00,WeatherTracker,2013-05-18 05:12:00,
2013-05-17 22:17:00,50.0,30.0,29.97,North,360,3.0,5.0,46,0.00,,,0.00,WeatherTracker,2013-05-18 05:17:00,
2013-05-17 22:22:00,49.5,30.1,29.98,SSE,155,3.0,5.0,47,0.00,,,0.00,WeatherTracker,2013-05-18 05:22:00,
2013-05-17 22:27:00,49.7,29.2,29.98,SW,219,3.0,5.0,45,0.00,,,0.00,WeatherTracker,2013-05-18 05:27:00,
2013-05-17 22:32:00,49.6,29.7,29.97,NW,304,3.0,7.0,46,0.00,,,0.00,WeatherTracker,2013-05-18 05:32:00,
2013-05-17 22:37:00,50.3,29.2,29.97,WSW,254,2.0,8.0,44,0.00,,,0.00,WeatherTracker,2013-05-18 05:37:00,
2013-05-17 22:42:00,50.7,29.6,29.98,WSW,253,1.0,8.0,44,0.00,,,0.00,WeatherTracker,2013-05-18 05:42:00,
2013-05-17 22:47:00,50.6,30.1,29.98,WSW,254,1.0,5.0,45,0.00,,,0.00,WeatherTracker,2013-05-18 05:47:00,
2013-05-17 22:52:00,50.5,30.0,29.98,WSW,254,0.0,4.0,45,0.00,,,0.00,WeatherTracker,2013-05-18 05:52:00,
2013-05-17 22:57:00,50.3,30.3,29.98,WSW,254,2.0,4.0,46,0.00,,,0.00,WeatherTracker,2013-05-18 05:57:00,
2013-05-17 23:02:00,49.8,29.3,29.98,WSW,255,1.0,4.0,45,0.00,,,0.00,WeatherTracker,2013-05-18 06:02:00,
2013-05-17 23:07:00,50.1,30.7,29.98,North,5,0.0,4.0,47,0.00,,,0.00,WeatherTracker,2013-05-18 06:07:00,
2013-05-17 23:12:00,50.3,31.4,29.98,NNE,16,0.0,6.0,48,0.00,,,0.00,WeatherTracker,2013-05-18 06:12:00,
2013-05-17 23:17:00,50.0,30.6,29.99,NNE,19,4.0,6.0,47,0.00,,,0.00,WeatherTracker,2013-05-18 06:17:00,
2013-05-17 23:22:00,48.5,30.2,29.99,NNW,338,4.0,5.0,49,0.00,,,0.00,WeatherTracker,2013-05-18 06:22:00,
2013-05-17 23:27:00,48.0,31.2,29.99,NNW,338,0.0,6.0,52,0.00,,,0.00,WeatherTracker,2013-05-18 06:27:00,
2013-05-17 23:32:00,47.2,30.0,29.99,NNW,338,0.0,6.0,51,0.00,,,0.00,WeatherTracker,2013-05-18 06:32:00,
2013-05-17 23:37:00,46.1,29.5,29.99,NNW,338,1.0,2.0,52,0.00,,,0.00,WeatherTracker,2013-05-18 06:37:00,
2013-05-17 23:42:00,45.8,29.2,29.99,NNW,338,2.0,2.0,52,0.00,,,0.00,WeatherTracker,2013-05-18 06:42:00,
2013-05-17 23:47:00,45.5,29.4,29.99,NNW,338,1.0,3.0,53,0.00,,,0.00,WeatherTracker,2013-05-18 06:47:00,
2013-05-17 23:52:00,44.5,28.9,29.99,NNW,338,3.0,3.0,54,0.00,,,0.00,WeatherTracker,2013-05-18 06:52:00,
2013-05-17 23:58:00,43.8,28.7,29.99,NNW,337,3.0,4.0,55,0.00,,,0.00,WeatherTracker,2013-05-18 06:58:00,